Hourly Weather Koudougou

Today, 3 August, Monday

Time Temperature Precipitation Wind Pressure Humidity
00:00 +27°C° 0 mm 6 mps 734 mmHg 73%
01:00 +27°C° 0 mm 5 mps 734 mmHg 74%
02:00 +27°C° 0 mm 5 mps 734 mmHg 75%
03:00 +27°C° 0 mm 5 mps 734 mmHg 76%
04:00 +26°C° 0.5 mm 4 mps 734 mmHg 78%
05:00 +26°C° 0.5 mm 4 mps 734 mmHg 79%
06:00 +26°C° 0.5 mm 3 mps 734 mmHg 81%
07:00 +26°C° 1 mm 4 mps 734 mmHg 82%
08:00 +26°C° 1 mm 5 mps 734 mmHg 83%
09:00 +24°C° 1 mm 6 mps 734 mmHg 84%
10:00 +25°C° 0.4 mm 5 mps 734 mmHg 85%
11:00 +25°C° 0.4 mm 5 mps 734 mmHg 85%
12:00 +26°C° 0.4 mm 5 mps 735 mmHg 86%
13:00 +25°C° 1.5 mm 4 mps 734 mmHg 87%
14:00 +25°C° 1.5 mm 4 mps 733 mmHg 89%
15:00 +25°C° 1.5 mm 3 mps 733 mmHg 90%
16:00 +25°C° 1.1 mm 3 mps 733 mmHg 90%
17:00 +25°C° 1.1 mm 3 mps 733 mmHg 90%
18:00 +25°C° 1.1 mm 3 mps 733 mmHg 90%
19:00 +25°C° 0.3 mm 3 mps 733 mmHg 91%
20:00 +25°C° 0.3 mm 3 mps 734 mmHg 91%
21:00 +25°C° 0.3 mm 3 mps 734 mmHg 92%
22:00 +24°C° 0 mm 3 mps 734 mmHg 92%
23:00 +24°C° 0 mm 3 mps 734 mmHg 93%

Tomorrow, 4 August, Tuesday

Time Temperature Precipitation Wind Pressure Humidity
00:00 +24°C° 0 mm 3 mps 734 mmHg 93%
01:00 +24°C° 0 mm 3 mps 733 mmHg 93%
02:00 +24°C° 0 mm 3 mps 733 mmHg 92%
03:00 +24°C° 0 mm 3 mps 733 mmHg 92%
04:00 +24°C° 0 mm 3 mps 733 mmHg 91%
05:00 +23°C° 0 mm 4 mps 733 mmHg 91%
06:00 +23°C° 0 mm 4 mps 733 mmHg 91%
07:00 +23°C° 0 mm 5 mps 734 mmHg 87%
08:00 +24°C° 0 mm 6 mps 734 mmHg 83%
09:00 +26°C° 0 mm 7 mps 735 mmHg 80%
10:00 +26°C° 0 mm 7 mps 735 mmHg 77%
11:00 +27°C° 0 mm 7 mps 735 mmHg 75%
12:00 +27°C° 0 mm 7 mps 735 mmHg 72%
13:00 +28°C° 0 mm 7 mps 734 mmHg 70%
14:00 +29°C° 0 mm 7 mps 733 mmHg 67%
15:00 +30°C° 0 mm 7 mps 733 mmHg 64%
16:00 +29°C° 0 mm 6 mps 733 mmHg 67%
17:00 +29°C° 0 mm 6 mps 733 mmHg 69%
18:00 +28°C° 0 mm 5 mps 733 mmHg 72%
19:00 +27°C° 0 mm 5 mps 733 mmHg 74%
20:00 +26°C° 0 mm 5 mps 734 mmHg 77%
21:00 +26°C° 0 mm 5 mps 734 mmHg 79%
22:00 +25°C° 0 mm 5 mps 734 mmHg 80%
23:00 +25°C° 0 mm 5 mps 734 mmHg 82%

Day after tomorrow, 5 August, Wednesday

Time Temperature Precipitation Wind Pressure Humidity
00:00 +25°C° 0 mm 5 mps 734 mmHg 84%
01:00 +23°C° 0 mm 4 mps 734 mmHg 85%
02:00 +23°C° 0 mm 4 mps 734 mmHg 86%
03:00 +23°C° 0 mm 4 mps 733 mmHg 87%
04:00 +23°C° 0 mm 4 mps 734 mmHg 88%
05:00 +22°C° 0 mm 4 mps 734 mmHg 89%
06:00 +22°C° 0 mm 3 mps 734 mmHg 89%
07:00 +23°C° 0 mm 4 mps 734 mmHg 84%
08:00 +26°C° 0 mm 5 mps 735 mmHg 78%
09:00 +27°C° 0 mm 5 mps 735 mmHg 72%
10:00 +28°C° 0 mm 5 mps 735 mmHg 68%
11:00 +29°C° 0 mm 5 mps 735 mmHg 64%
12:00 +30°C° 0 mm 5 mps 735 mmHg 60%
13:00 +32°C° 0.1 mm 5 mps 734 mmHg 59%
14:00 +32°C° 0.1 mm 5 mps 733 mmHg 59%
15:00 +32°C° 0.1 mm 5 mps 733 mmHg 58%
16:00 +32°C° 0.2 mm 4 mps 733 mmHg 61%
17:00 +30°C° 0.2 mm 4 mps 733 mmHg 64%
18:00 +30°C° 0.2 mm 3 mps 733 mmHg 67%
19:00 +29°C° 0.1 mm 3 mps 733 mmHg 70%
20:00 +28°C° 0.1 mm 3 mps 734 mmHg 74%
21:00 +27°C° 0.1 mm 2 mps 734 mmHg 78%
22:00 +27°C° 0 mm 3 mps 734 mmHg 79%
23:00 +26°C° 0 mm 3 mps 734 mmHg 80%

6 August, Thursday

Time Temperature Precipitation Wind Pressure Humidity
00:00 +26°C° 0 mm 3 mps 734 mmHg 81%
01:00 +26°C° 0 mm 3 mps 734 mmHg 81%
02:00 +26°C° 0 mm 3 mps 733 mmHg 82%
03:00 +25°C° 0 mm 3 mps 733 mmHg 83%
04:00 +25°C° 0 mm 3 mps 733 mmHg 84%
05:00 +25°C° 0 mm 3 mps 733 mmHg 84%
06:00 +25°C° 0 mm 3 mps 733 mmHg 85%
07:00 +26°C° 0 mm 4 mps 734 mmHg 79%
08:00 +28°C° 0 mm 4 mps 734 mmHg 74%
09:00 +29°C° 0 mm 5 mps 734 mmHg 68%
10:00 +30°C° 0 mm 6 mps 734 mmHg 65%
11:00 +32°C° 0 mm 6 mps 734 mmHg 62%
12:00 +33°C° 0 mm 6 mps 734 mmHg 58%
13:00 +33°C° 0 mm 6 mps 733 mmHg 58%
14:00 +33°C° 0 mm 6 mps 733 mmHg 58%
15:00 +33°C° 0 mm 5 mps 732 mmHg 59%
16:00 +33°C° 0 mm 4 mps 732 mmHg 61%
17:00 +31°C° 0 mm 3 mps 732 mmHg 63%
18:00 +31°C° 0 mm 2 mps 732 mmHg 66%
19:00 +30°C° 0 mm 3 mps 733 mmHg 69%
20:00 +29°C° 0 mm 3 mps 733 mmHg 71%
21:00 +28°C° 0 mm 3 mps 733 mmHg 74%
22:00 +28°C° 0 mm 3 mps 733 mmHg 75%
23:00 +28°C° 0 mm 4 mps 734 mmHg 77%

7 August, Friday

Time Temperature Precipitation Wind Pressure Humidity
00:00 +27°C° 0 mm 4 mps 734 mmHg 78%
01:00 +27°C° 0.4 mm 5 mps 733 mmHg 79%
02:00 +27°C° 0.4 mm 5 mps 733 mmHg 80%
03:00 +27°C° 0.4 mm 5 mps 733 mmHg 81%
04:00 +26°C° 0 mm 5 mps 733 mmHg 82%
05:00 +26°C° 0 mm 6 mps 733 mmHg 83%
06:00 +26°C° 0 mm 6 mps 732 mmHg 84%
07:00 +26°C° 0 mm 7 mps 733 mmHg 81%
08:00 +27°C° 0 mm 7 mps 733 mmHg 77%
09:00 +28°C° 0 mm 8 mps 733 mmHg 73%
10:00 +29°C° 0 mm 8 mps 733 mmHg 70%
11:00 +32°C° 0 mm 7 mps 733 mmHg 66%
12:00 +33°C° 0 mm 7 mps 733 mmHg 62%
13:00 +29°C° 6 mm 6 mps 732 mmHg 71%
14:00 +26°C° 6 mm 6 mps 732 mmHg 80%
15:00 +22°C° 6 mm 5 mps 731 mmHg 89%
16:00 +23°C° 1.4 mm 4 mps 731 mmHg 88%
17:00 +25°C° 1.4 mm 3 mps 731 mmHg 88%
18:00 +25°C° 1.4 mm 2 mps 731 mmHg 88%
19:00 +25°C° 0.1 mm 2 mps 732 mmHg 88%
20:00 +25°C° 0.1 mm 2 mps 733 mmHg 88%
21:00 +25°C° 0.1 mm 3 mps 733 mmHg 88%
22:00 +25°C° 0 mm 3 mps 733 mmHg 89%
23:00 +25°C° 0 mm 3 mps 733 mmHg 90%

8 August, Saturday

Time Temperature Precipitation Wind Pressure Humidity
00:00 +25°C° 0 mm 3 mps 733 mmHg 91%
01:00 +24°C° 0.1 mm 3 mps 733 mmHg 91%
02:00 +23°C° 0.1 mm 4 mps 732 mmHg 92%
03:00 +23°C° 0.1 mm 4 mps 732 mmHg 92%
04:00 +23°C° 0.2 mm 4 mps 732 mmHg 92%
05:00 +23°C° 0.2 mm 4 mps 733 mmHg 91%
06:00 +23°C° 0.2 mm 4 mps 733 mmHg 91%
07:00 +23°C° 0.1 mm 4 mps 733 mmHg 90%
08:00 +25°C° 0.1 mm 5 mps 734 mmHg 88%
09:00 +25°C° 0.1 mm 5 mps 734 mmHg 87%
10:00 +26°C° 0.3 mm 5 mps 734 mmHg 83%
11:00 +27°C° 0.3 mm 6 mps 734 mmHg 78%
12:00 +28°C° 0.3 mm 6 mps 734 mmHg 74%
13:00 +28°C° 0.1 mm 6 mps 734 mmHg 73%
14:00 +28°C° 0.1 mm 7 mps 733 mmHg 73%
15:00 +28°C° 0.1 mm 7 mps 733 mmHg 72%
16:00 +28°C° 0 mm 6 mps 733 mmHg 74%
17:00 +27°C° 0 mm 6 mps 733 mmHg 75%
18:00 +27°C° 0 mm 6 mps 733 mmHg 76%
19:00 +27°C° 0 mm 5 mps 733 mmHg 77%
20:00 +26°C° 0 mm 5 mps 734 mmHg 78%
21:00 +25°C° 0 mm 4 mps 735 mmHg 79%
22:00 +25°C° 0 mm 4 mps 735 mmHg 80%
23:00 +25°C° 0 mm 4 mps 735 mmHg 82%
Show more